Regional Weather Roundup
Issued by NWS

Home | Current Version | Previous Version | Text Only | Print | Product List | Glossary On
Versions: 1 2 3 4 5 6 7 8 9 10 11 12 13 14 15 16 17 18 19 20 21 22 23 24 25 26 27 28 29 30 31 32 33 34 35 36 37 38 39 40 41 42 43 44 45 46 47 48 49 50
000
ASUS43 KOAX 300610
RWRNE

WEATHER ROUNDUP FOR NEBRASKA
NATIONAL WEATHER SERVICE OMAHA NE
100 AM CDT THU MAR 30 2017

NOTES: SATELLITE DATA IS BEING USED TO AUGMENT CLOUD COVER ABOVE
       12000 FEET.
       "FAIR" INDICATES FEW OR NO CLOUDS BELOW 12,000 FEET WITH NO
       SIGNIFICANT WEATHER AND/OR OBSTRUCTIONS TO VISIBILITY.

  * THESE STATIONS DO NOT REPORT WEATHER SUCH AS RAIN...SNOW OR FOG.

NEZ001>004-019>022-054>056-300700-
NEBRASKA PANHANDLE

CITY           SKY/WX    TMP DP  RH WIND       PRES   REMARKS
SCOTTSBLUFF    CLEAR     36  33  89 CALM      29.94S
6HR MIN TEMP:  36; 6HR MAX TEMP:  57;

ALLIANCE       CLEAR     30  28  92 W5        29.92F WCI  25
6HR MIN TEMP:  29; 6HR MAX TEMP:  53;

CHADRON        CLEAR     39  35  86 NW3       29.92S
6HR MIN TEMP:  39; 6HR MAX TEMP:  55;

KIMBALL        CLEAR     34  34 100 W7        29.94F WCI  28
SIDNEY         CLEAR     30  27  88 NW7       29.92F WCI  23
6HR MIN TEMP:  29; 6HR MAX TEMP:  50;

$$

NEZ057>060-069>072-079>082-300700-
SOUTHWEST NEBRASKA

CITY           SKY/WX    TMP DP  RH WIND       PRES   REMARKS
NORTH PLATTE   CLOUDY    40  34  79 N14       29.90F WCI  32
6HR MIN TEMP:  39; 6HR MAX TEMP:  46;

IMPERIAL       CLEAR     35  32  88 N9        29.91F WCI  28
6HR MIN TEMP:  34; 6HR MAX TEMP:  47;

LEXINGTON      CLOUDY    39  37  91 N15       29.85F WCI  31
MCCOOK         CLOUDY    41  38  89 N14       29.87F
6HR MIN TEMP:  40; 6HR MAX TEMP:  45;

OGALLALA       CLEAR     36  35  95 CALM      29.92S
$$

NEZ005>010-023>029-035>040-094-300700-
NORTH CENTRAL NEBRASKA

CITY           SKY/WX    TMP DP  RH WIND       PRES   REMARKS
VALENTINE      CLOUDY    40  35  83 E8        29.94F WCI  34
6HR MIN TEMP:  39; 6HR MAX TEMP:  48;

AINSWORTH      CLOUDY    37  37  97 NE8       29.93F WCI  31
BROKEN BOW     CLOUDY    38  35  89 N17       29.87S WCI  28
6HR MIN TEMP:  38; 6HR MAX TEMP:  42; 6HR PCP: TRACE;

O`NEILL        CLOUDY    38  37  97 N9        29.91F WCI  31
ORD            CLOUDY    38  34  85 N16G26    29.86S WCI  29
6HR MIN TEMP:  38; 6HR MAX TEMP:  41; 6HR PCP: TRACE;

THEDFORD       CLOUDY    40  36  83 N8        29.92F WCI  35
$$

NEZ041-046>049-061>064-073>077-083>087-300700-
SOUTH CENTRAL NEBRASKA

CITY           SKY/WX    TMP DP  RH WIND       PRES   REMARKS
GRAND ISLAND   CLOUDY    36  36 100 N18       29.82F WCI  26
6HR MIN TEMP:  36; 6HR MAX TEMP:  40; 6HR PCP:  0.03;

AURORA         LGT RAIN  38  38 100 N18       29.79F WCI  29
HASTINGS       CLOUDY    36  35  96 N24G30    29.80F FOG     WCI  24
6HR MIN TEMP:  36; 6HR MAX TEMP:  41; 6HR PCP:  0.04;

HEBRON         LGT SNOW  40  39  97 N18       29.71S WCI  31
HOLDREGE       CLOUDY    38  36  92 N23G30    29.82S WCI  27
KEARNEY *      CLOUDY    37  34  87 N22       29.83F WCI  27
YORK           LGT RAIN  39  39 100 N21G28    29.77F WCI  29
$$

NEZ011>018-030>034-042>045-300700-
NORTHEAST NEBRASKA

CITY           SKY/WX    TMP DP  RH WIND       PRES   REMARKS
NORFOLK        CLOUDY    38  36  92 NE14      29.84F FOG     WCI  30
6HR MIN TEMP:  38; 6HR MAX TEMP:  40; 6HR PCP:  0.01;

ALBION         DRIZZLE   39  36  90 N12       29.85F WCI  31
BLAIR          CLOUDY    41  40  95 NE21G30   29.72F
FREMONT        CLOUDY    41  40  96 N6        29.78R
TEKAMAH        LGT RAIN  42  38  85 N15       29.78F
6HR MIN TEMP:  42; 6HR MAX TEMP:  42; 6HR PCP:  0.05;

WAYNE          CLOUDY    38  38  99 NE14      29.86F FOG     WCI  30
$$

NEZ050>053-065>068-078-088>093-300700-
SOUTHEAST NEBRASKA

CITY           SKY/WX    TMP DP  RH WIND       PRES   REMARKS
LINCOLN        CLOUDY    42  41  96 N16       29.74F
6HR MIN TEMP:  42; 6HR MAX TEMP:  44; 6HR PCP:  0.10;

OMAHA EPPLEY   CLOUDY    43  38  82 NE13G20   29.74S
6HR MIN TEMP:  42; 6HR MAX TEMP:  44; 6HR PCP:  0.03;

BEATRICE       CLOUDY    43  42  99 N16G23    29.65F
FALLS CITY     CLOUDY    49  47  93 E13       29.61F
6HR MIN TEMP:  48; 6HR MAX TEMP:  49; 6HR PCP:  0.13;

NEBRASKA CITY  CLOUDY    44  44 100 NE15G21   29.66F
PLATTSMOUTH    CLOUDY    44  40  88 NE14G21   29.69F
$$

NEZ044-045-051>053-067-300700-
OMAHA AREA

CITY           SKY/WX    TMP DP  RH WIND       PRES   REMARKS
OMAHA EPPLEY   CLOUDY    43  38  82 NE13G20   29.74S
6HR MIN TEMP:  42; 6HR MAX TEMP:  44; 6HR PCP:  0.03;

BLAIR          CLOUDY    41  40  95 NE21G30   29.72F
FREMONT        CLOUDY    41  40  96 N6        29.78R
MILLARD        CLOUDY    45  42  90 N7        29.73F
OFFUTT AFB     CLOUDY    44  41  90 NE14      29.70F
PLATTSMOUTH    CLOUDY    44  40  88 NE14G21   29.69F
WAHOO          LGT RAIN  41  39  94 N16       29.76R
$$




USA.gov is the U.S. government's official web portal to all federal, state and local government web resources and services.